Regional Weather Roundup
Issued by NWS Charleston, SC

Current Version | Previous Version | Text Only | Print | Product List | Glossary Off
Versions: 1 2 3 4 5 6 7 8 9 10 11 12 13 14 15 16 17 18 19 20 21 22 23 24 25 26 27 28 29 30 31 32 33 34 35 36 37 38 39 40 41 42 43 44 45 46 47 48 49 50

000
ASUS42 KCHS 251210
RWRCHS
REGIONAL WEATHER ROUNDUP
NATIONAL WEATHER SERVICE CHARLESTON SC
800 AM EDT SAT OCT 25 2014

NOTE: "FAIR" INDICATES FEW OR NO CLOUDS BELOW 12,000 FEET WITH NO
SIGNIFICANT WEATHER AND/OR OBSTRUCTIONS TO VISIBILITY.

NOT ALL STATIONS ARE QUALITY CONTROLLED BY THE NATIONAL
WEATHER SERVICE. USE DATA WITH CAUTION...ESPECIALLY
DEWPOINT OBSERVATIONS.

SCZ027-030-031-034>040-042>050-251300-
...SOUTH CAROLINA...

CITY           SKY/WX    TMP DP  RH WIND       PRES   REMARKS
N CHARLESTON   CLEAR     50  47  89 NW5       30.01S
6HR MIN TEMP:  48; 6HR MAX TEMP:  55;

WATERFRONT PRK   N/A     57 N/A N/A NW6         N/A
FORT JOHNSON   NOT AVBL
JOHNS ISLAND   SUNNY     52  52 100 CALM      30.01S
PINOPOLIS      NOT AVBL
MONCKS CORNER  FAIR      46  46 100 CALM      30.02R
SUMMERVILLE    FAIR      45  45 100 CALM      30.03S
BEAUFORT MCAS  CLEAR     51  49  92 N3        30.01S
6HR MIN TEMP:  50; 6HR MAX TEMP:  54;

BEAUFORT ARPT  FAIR      52  52 100 CALM      30.01R
HILTON HEAD IS CLEAR     52  50  93 NW3       30.02R
GEORGETOWN     NOT AVBL
WALTERBORO     SUNNY     43 N/A N/A CALM      30.02S
ORANGEBURG     CLEAR     43  40  89 CALM      30.03R
6HR MIN TEMP:  43; 6HR MAX TEMP:  49;

BARNWELL       FAIR      39  37  93 CALM      30.04R
AIKEN          FAIR      39  39 100 CALM      30.07R
MANNING        FAIR      43 N/A N/A CALM      30.03R
KINGSTREE      NOT AVBL
COLUMBIA       FOG       41  39  93 W5        30.04R VSB 3/4
6HR MIN TEMP:  40; 6HR MAX TEMP:  46;

SUMTER         CLEAR     47  45  95 NW5       30.02R
6HR MIN TEMP:  44; 6HR MAX TEMP:  50;

FLORENCE       CLEAR     46  43  89 NW3       30.02R
6HR MIN TEMP:  44; 6HR MAX TEMP:  50;

MYRTLE BEACH   CLEAR     50  46  87 CALM      30.01R
N MYRTLE BEACH CLEAR     48  45  89 CALM      30.01R
6HR MIN TEMP:  45; 6HR MAX TEMP:  53;


$$

GAZ063-065-086>088-099>101-113>116-118-119-134-136>141-150-251300-
...GEORGIA...

CITY           SKY/WX    TMP DP  RH WIND       PRES   REMARKS
SAVANNAH ARPT  PTCLDY    49  45  86 CALM      30.02R
6HR MIN TEMP:  48; 6HR MAX TEMP:  52;

HUNTER AAF     CLEAR     48  46  92 W2        29.99S
6HR MIN TEMP:  46; 6HR MAX TEMP:  50;

FORT STEWART   CLEAR     44  42  93 CALM      30.00R
6HR MIN TEMP:  44; 6HR MAX TEMP:  47;

STATESBORO     NOT AVBL
SYLVANIA       SUNNY     46  45  97 CALM      30.03R
CLAXTON        FAIR      41  41 100 CALM      30.02S
THOMSON        PTCLDY    42  42 100 CALM      30.09R
AUGUSTA-BUSH   CLEAR     40  38  93 CALM      30.04R
6HR MIN TEMP:  38; 6HR MAX TEMP:  44;

AUGUSTA-DANIEL CLEAR     51  45  79 NW7       30.04R
SWAINSBORO     FAIR      43  43 100 MISG      30.03R
VIDALIA        CLEAR     46  45  93 CALM      30.02R
ALMA           FOG       43  42  97 CALM      30.01R VSB<1/4
6HR MIN TEMP:  43; 6HR MAX TEMP:  48;

WAYCROSS       CLEAR     48  48  99 CALM      30.02R
JESUP          FAIR      43  43 100 CALM      30.02R
BRUNSWICK      CLEAR     50  46  87 CALM      30.02R
SAINT SIMONS   CLEAR     49  49 100 CALM      30.01R FOG
6HR MIN TEMP:  49; 6HR MAX TEMP:  53;


$$

SCZ027-028-034-036>038-045-046-048>050-GAZ119-141-251300-
...LAKE AND SUPPLEMENTAL COASTAL OBSERVATIONS...

STATION/POSITION TIME  TEMP    WIND        PRES    WAVE   SWELL
                       AIR SEA DIR/SP/G            HT/PER HT/PER/DIR
                 (UTC) (F)     (DEG/KT/KT) (MB)    (FT/S) (FT/S/D)
UPR LAKE MARION  NOT AVBL
WINYAH BAY       1100   51     310/  4     1015.0S
LAKE MURRAY      1100   49        CALM     1016.3R
ACE BASIN NERRS  1100   48        CALM     1015.0S
FORT PULASKI     1200   57     310/  6/  8 1016.2R
SAPELO ISLAND    NOT AVBL

$$

ANZ835-935-AMZ111-154-330-350-352-354-374-450-454-472-251300-
...C-MAN AND BUOY OBSERVATIONS...

STATION/POSITION TIME  TEMP    WIND        PRES    WAVE   SWELL
                       AIR SEA DIR/SP/G            HT/PER HT/PER/DIR
                 (UTC) (F)     (DEG/KT/KT) (MB)    (FT/S) (FT/S/D)
FOLLY BEACH CMAN 1100   57     310/  4/  6 1016.3R
BUOY 41004       1200   69 78   10/  6/  8 1015.1R   3/10   3/10
BUOY 41008       1200   68 75  350/ 10/ 12 1015.6R   2/10   2/ 80/10
5E ST. MARYS GA  1200      75                N/A     2/10
FRYING PAN BUOY  1200   67 74  340/  6/  8 1016.0R   2/10   2/ 60/10
BUOY 41025       1200   65     340/ 12/ 16 1014.6R   3/ 9   3/ 40/ 9
CAPE LOOKOUT NC  1100   60     350/  6/  6 1014.7R
BUOY 41002       1144   71 77  350/ 10/ 12 1013.5R   3/ 9   3/ 10/ 9
BUOY 41010       1200   76 82  360/ 12/ 14 1012.9R   3/10   3/ 30/10
BUOY 41012       NOT AVBL
ST AUGUSTINE FL  1200   60     320/  8/ 10 1016.0R
CAPERS NEARSHORE NOT AVBL
FRIPP NEARSHORE  NOT AVBL


$$



USA.gov is the U.S. government's official web portal to all federal, state and local government web resources and services.